Location: Atherton
(17.2661°S, 145.4859°E)
Time: 11:17:40
(UTC+10:00)

Vanguard 1 - Pass Details

Date: 02 July 2025
Orbit: 649 x 3822 km, 34.2° (Epoch: 05 July)

Event Time Altitude Azimuth Distance (km) Brightness Sun altitude
Rises 18:24:32 0° 278° (W) 7,934 16.6 -7.2°
Reaches altitude 10° 18:30:40 10° 272° (W) 6,761 15.7 -8.5°
Maximum altitude 18:50:41 48° 202° (SSW) 3,317 12.7 -13.0°
Enters shadow 19:01:23 15° 133° (SE) 3,963 12.6 -15.4°
Drops below altitude 10° 19:02:39 10° 129° (SE) 4,213 - -15.7°
Sets 19:05:31 0° 123° (ESE) 4,859 - -16.3°
